DW7032 Weather Reports


time (UTC)temp
C
wind
direction
speed
KPH
gust
KPH
rain 1hr
cm
rain 24hr
cm
rain mn
cm
humidity
%
barometer
mb
20260510224552 8 360 1.6 9.7 0.00 0.00 0.00 48 1020.4
20260510223106 9 33 1.6 9.7 0.00 0.00 0.00 45 1020.3
20260510221545 10 298 6.4 16.1 0.00 0.00 0.00 45 1020.1
20260510220044 9 314 1.6 8.0 0.00 0.00 0.00 49 1019.9
20260510214542 8 295 4.8 12.9 0.00 0.00 0.00 54 1019.7
20260510213057 8 264 4.8 12.9 0.00 0.00 0.00 54 1019.7
20260510211540 8 264 4.8 14.5 0.00 0.00 0.00 54 1019.7
20260510210050 9 283 9.7 17.7 0.00 0.00 0.00 50 1019.7
20260510204551 10 347 1.6 8.0 0.00 0.00 0.00 51 1019.5
20260510203037 9 347 3.2 16.1 0.00 0.00 0.00 53 1019.4
20260510201536 8 297 4.8 14.5 0.00 0.00 0.00 55 1019.5
20260510200034 8 252 3.2 9.7 0.00 0.00 0.00 57 1019.2
20260510194533 7 194 3.2 12.9 0.00 0.00 0.00 59 1019.2
20260510193032 7 347 1.6 8.0 0.00 0.00 0.00 64 1019.2
20260510191536 6 258 1.6 9.7 0.00 0.00 0.00 65 1019.2
20260510190035 6 336 1.6 14.5 0.00 0.00 0.00 67 1019.2
20260510184534 7 242 3.2 19.3 0.00 0.00 0.00 62 1019.1
20260510183026 7 207 3.2 8.0 0.00 0.00 0.00 61 1018.5
20260510181557 7 53 3.2 11.3 0.00 0.00 0.00 65 1018.2
20260510180034 6 291 3.2 11.3 0.00 0.00 0.00 69 1018.2
20260510174531 5 23 1.6 11.3 0.00 0.00 0.00 71 1018.2
20260510173022 6 216 4.8 12.9 0.00 0.00 0.00 68 1018.3
20260510171523 7 264 3.2 20.9 0.00 0.00 0.00 63 1018.2
20260510170020 7 290 4.8 17.7 0.00 0.00 0.00 66 1018.0
20260510164523 7 236 4.8 14.5 0.00 0.00 0.00 65 1017.8
20260510163020 8 269 8.0 16.1 0.00 0.00 0.00 60 1017.5
20260510161516 8 280 6.4 12.9 0.00 0.00 0.00 64 1017.4
20260510160020 8 281 8.0 14.5 0.00 0.00 0.00 61 1017.2
20260510154513 8 179 4.8 25.7 0.00 0.00 0.00 58 1017.0
20260510153011 8 207 6.4 14.5 0.00 0.00 0.00 63 1016.8
20260510151510 8 227 4.8 12.9 0.00 0.00 0.00 63 1016.6
20260510150008 7 254 8.0 16.1 0.00 0.00 0.00 64 1016.4
20260510144508 7 251 6.4 12.9 0.00 0.00 0.00 64 1016.2
20260510143007 7 241 6.4 17.7 0.00 0.00 0.00 60 1016.2
20260510141503 8 238 4.8 19.3 0.00 0.00 0.00 55 1016.0
20260510140101 8 276 3.2 11.3 0.00 0.00 0.00 54 1015.8
20260510134605 8 259 3.2 8.0 0.00 0.00 0.00 56 1015.9
20260510133055 7 310 4.8 8.0 0.00 0.00 0.00 57 1015.9
20260510131551 7 293 4.8 12.9 0.00 0.00 0.00 62 1015.9
20260510130048 6 210 4.8 9.7 0.00 0.00 0.00 62 1015.8
20260510124545 6 326 1.6 17.7 0.00 0.00 0.00 67 1015.7
20260510123041 5 287 0.0 9.7 0.00 0.00 0.00 70 1015.7
20260510121538 5 280 1.6 9.7 0.00 0.00 0.00 73 1015.6
20260510120037 4 294 3.2 6.4 0.00 0.00 0.00 75 1015.4
20260510114538 3 259 1.6 6.4 0.00 0.00 0.00 77 1015.2
20260510113033 3 347 1.6 11.3 0.00 0.00 0.00 79 1015.1
20260510111531 2 278 3.2 8.0 0.00 0.00 0.00 82 1014.9
20260510110033 2 272 1.6 6.4 0.00 0.00 0.00 83 1014.6
20260510104527 1 301 1.6 6.4 0.00 0.00 0.00 83 1014.3
20260510103026 1 310 0.0 3.2 0.00 0.00 0.00 82 1014.1
20260510101520 1 347 0.0 3.2 0.00 0.00 0.00 81 1013.8
20260510100017 2 310 0.0 1.6 0.00 0.00 0.00 80 1013.7
20260510094518 2 310 0.0 3.2 0.00 0.00 0.00 79 1013.5
20260510093012 2 277 1.6 4.8 0.00 0.00 0.00 79 1013.3
20260510091510 3 283 1.6 4.8 0.00 0.00 0.00 79 1013.2
20260510090013 3 288 1.6 4.8 0.00 0.00 0.00 79 1012.9
20260510084507 2 302 0.0 9.7 0.00 0.00 0.00 79 1012.8
20260510083005 2 294 1.6 4.8 0.00 0.00 0.00 77 1012.7
20260510081506 3 298 1.6 4.8 0.00 0.00 0.00 75 1012.6
20260510080000 3 302 4.8 9.7 0.00 0.00 0.00 75 1012.4
20260510074557 3 273 1.6 4.8 0.00 0.00 0.00 74 1012.2
20260510073054 3 292 0.0 9.7 0.00 0.00 0.00 72 1011.9
20260510071557 3 293 3.2 11.3 0.00 0.00 0.00 72 1011.7
20260510070050 3 243 0.0 6.4 0.00 0.00 0.00 70 1011.4
20260510064547 3 347 1.6 6.4 0.00 0.00 0.00 70 1011.5
20260510063047 3 271 1.6 9.7 0.00 0.00 0.00 70 1011.4
20260510061550 3 256 3.2 11.3 0.00 0.00 0.00 70 1011.4
20260510060044 4 283 0.0 4.8 0.00 0.00 0.00 69 1011.2
20260510054547 4 312 0.0 4.8 0.00 0.00 0.00 69 1011.1
20260510053039 4 293 1.6 8.0 0.00 0.00 0.00 68 1011.0
20260510051540 4 305 0.0 3.2 0.00 0.00 0.00 67 1010.9
20260510050037 4 347 1.6 8.0 0.00 0.00 0.00 67 1010.8
20260510044536 5 294 0.0 8.0 0.00 0.00 0.00 66 1010.8
20260510043033 5 316 4.8 12.9 0.00 0.00 0.00 66 1010.7
20260510041530 5 307 1.6 6.4 0.00 0.00 0.00 66 1010.5
20260510040029 5 290 3.2 12.9 0.00 0.00 0.00 66 1010.2
20260510034525 5 325 6.4 19.3 0.00 0.00 0.00 65 1009.9
20260510033022 5 317 3.2 12.9 0.00 0.00 0.00 65 1009.8
20260510031536 5 347 1.6 8.0 0.00 0.00 0.00 65 1009.8
20260510030023 6 288 1.6 6.4 0.00 0.00 0.00 66 1009.9
20260510024533 6 321 3.2 9.7 0.00 0.00 0.00 66 1009.9
20260510023016 6 347 1.6 11.3 0.00 0.00 0.00 65 1009.6
20260510021516 6 321 4.8 9.7 0.00 0.00 0.00 65 1009.5
20260510020014 6 58 1.6 6.4 0.00 0.00 0.00 66 1009.2
20260510014510 6 326 3.2 9.7 0.00 0.00 0.00 66 1008.9
20260510013008 6 303 3.2 17.7 0.00 0.00 0.00 65 1008.6
20260510011506 6 293 4.8 12.9 0.00 0.00 0.00 64 1008.3
20260510010004 7 333 1.6 12.9 0.00 0.00 0.00 63 1008.0
20260510004602 7 308 3.2 9.7 0.00 0.00 0.00 62 1007.8
20260510003116 7 316 1.6 12.9 0.00 0.00 0.00 61 1007.5
20260510001555 8 2 3.2 14.5 0.00 0.00 0.00 60 1007.1
20260510000101 8 273 6.4 16.1 0.00 0.00 0.00 61 1006.9
20260509234602 8 327 4.8 14.5 0.00 0.00 0.00 64 1006.5
20260509233049 8 347 6.4 14.5 0.00 0.00 0.00 64 1006.2
20260509231553 9 291 4.8 17.7 0.00 0.00 0.00 63 1005.9
20260509230055 10 296 4.8 17.7 0.00 0.00 0.00 60 1005.6